This is the latest recevied weather packets stored in our database for station/object KC7UNY-13. If no packets are shown the sender has not sent any weather packets the latest 10 day(s).
| Time | Temp. | Humidity | Pressure | Rain* | Wind** | Luminosity | Snow |
|---|---|---|---|---|---|---|---|
| 1777905637 | 22.78° C | 47% | 1012.5 hPa | 0 mm | - | 96 W/m² | - |
| 1777905334 | 22.78° C | 48% | 1012.4 hPa | 0 mm | - | 91 W/m² | - |
| 1777905032 | 22.22° C | 48% | 1012.3 hPa | 0 mm | - | 89 W/m² | - |
| 1777904729 | 22.22° C | 48% | 1012.2 hPa | 0 mm | - | 75 W/m² | - |
| 1777904426 | 22.22° C | 48% | 1012 hPa | 0 mm | - | 65 W/m² | - |
| 1777904123 | 22.22° C | 48% | 1012 hPa | 0 mm | - | 65 W/m² | - |
| 1777903820 | 22.22° C | 49% | 1012.1 hPa | 0 mm | - | 62 W/m² | - |
| 1777903516 | 22.22° C | 48% | 1012.1 hPa | 0 mm | - | 57 W/m² | - |
| 1777903213 | 22.22° C | 48% | 1011.9 hPa | 0 mm | - | 53 W/m² | - |
| 1777902909 | 22.22° C | 47% | 1012 hPa | 0 mm | - | 45 W/m² | - |
| 1777902606 | 22.22° C | 47% | 1012 hPa | 0 mm | - | 37 W/m² | - |
| 1777902303 | 22.22° C | 47% | 1012.2 hPa | 0 mm | - | 33 W/m² | - |
| 1777902000 | 22.22° C | 47% | 1012.2 hPa | 0 mm | - | 29 W/m² | - |
| 1777901699 | 22.22° C | 46% | 1012.1 hPa | 0 mm | - | 26 W/m² | - |
| 1777901395 | 22.22° C | 46% | 1012.2 hPa | 0 mm | - | 25 W/m² | - |
| 1777901093 | 22.22° C | 46% | 1012.1 hPa | 0 mm | - | 22 W/m² | - |
| 1777900790 | 22.22° C | 45% | 1011.8 hPa | 0 mm | - | 26 W/m² | - |
| 1777900488 | 22.22° C | 45% | 1011.9 hPa | 0 mm | - | 26 W/m² | - |
| 1777900184 | 21.67° C | 46% | 1011.7 hPa | 0 mm | - | 22 W/m² | - |
| 1777899882 | 21.67° C | 46% | 1011.4 hPa | 0 mm | - | 17 W/m² | - |
| 1777899578 | 21.67° C | 46% | 1011.4 hPa | 0 mm | - | 14 W/m² | - |
| 1777899276 | 21.67° C | 46% | 1011.2 hPa | 0 mm | - | 10 W/m² | - |
| 1777898973 | 21.67° C | 46% | 1011.2 hPa | 0 mm | - | 7 W/m² | - |
| 1777898670 | 21.67° C | 46% | 1011.3 hPa | 0 mm | - | 4 W/m² | - |
| 1777898367 | 21.67° C | 47% | 1011.2 hPa | 0 mm | - | 2 W/m² | - |
* Rain latest hour (hover to see other rain measurements)
** Current wind speed in m/s (hover to see current wind gust speed)